Simultaneous Nadir Overpasses (SNOs) Predictions

Prediction of SNOs between GOES-16 and NPP Satellite Orbit:

Table of predicted SNOs for the next 14.0 days since TLE Epoch: 2/4/2023
Index Date Time (GOES-16) GOES-16 Lat,Lon NPP Lat,Lon Distance(km) Time Diff (sec)
1 02/04/2023 06:12:35 -0.05, -75.19 -0.78, -71.92 372.52 80
2 02/05/2023 18:34:31 0.05, -75.19 -0.43, -77.21 230.89 80
3 02/06/2023 18:18:28 0.05, -75.20 0.63, -72.69 286.58 80
4 02/08/2023 06:40:15 -0.04, -75.22 0.59, -77.95 311.78 80
5 02/09/2023 06:18:51 -0.04, -75.23 -0.42, -73.41 205.96 80
6 02/10/2023 18:40:48 0.04, -75.24 -0.72, -78.72 396.33 80
7 02/11/2023 18:24:44 0.04, -75.26 0.30, -74.19 121.80 80
8 02/13/2023 06:46:31 -0.04, -75.28 0.92, -79.45 475.57 80
9 02/14/2023 06:25:06 -0.04, -75.29 -0.10, -74.91 42.52 80
10 02/16/2023 18:28:18 0.02, -75.32 -0.07, -75.68 41.39 80
11 02/17/2023 18:12:14 0.01, -75.33 0.95, -71.15 477.23 80
